This is the latest recevied weather packets stored in our database for station/object KJ4YLO. If no packets are shown the sender has not sent any weather packets the latest 1 day(s).
| Time | Temp. | Humidity | Pressure | Rain* | Wind** | Luminosity | Snow |
|---|---|---|---|---|---|---|---|
| 1777988739 | 15.56° C | 67% | 1018 hPa | 0 mm | 0 m/s | 74 W/m² | - |
| 1777988437 | 15.56° C | 66% | 1018 hPa | 0 mm | 0 m/s | 70 W/m² | - |
| 1777988133 | 15.56° C | 66% | 1018 hPa | 0 mm | 0 m/s | 71 W/m² | - |
| 1777987833 | 15.56° C | 67% | 1018 hPa | 0 mm | 0 m/s | 80 W/m² | - |
| 1777987526 | 15.56° C | 68% | 1018.3 hPa | 0 mm | 0 m/s | 89 W/m² | - |
| 1777987224 | 15° C | 69% | 1018.3 hPa | 0 mm | 0 m/s | 75 W/m² | - |
| 1777986920 | 15° C | 71% | 1018 hPa | 0 mm | 0 m/s | 78 W/m² | - |
| 1777986618 | 14.44° C | 75% | 1018.3 hPa | 0 mm | 0 m/s | 52 W/m² | - |
| 1777986316 | 13.89° C | 74% | 1018 hPa | 0 mm | 0 m/s | 46 W/m² | - |
| 1777986014 | 13.89° C | 74% | 1018 hPa | 0 mm | 0 m/s | 43 W/m² | - |
| 1777985710 | 13.33° C | 78% | 1018 hPa | 0 mm | 0 m/s | 41 W/m² | - |
| 1777985407 | 12.78° C | 81% | 1018 hPa | 0 mm | 0 m/s | 39 W/m² | - |
| 1777985104 | 12.22° C | 84% | 1018 hPa | 0 mm | 0 m/s | 39 W/m² | - |
| 1777984800 | 12.22° C | 86% | 1017.6 hPa | 0 mm | 0 m/s | 36 W/m² | - |
| 1777984496 | 11.67° C | 88% | 1017.6 hPa | 0 mm | 0 m/s | 38 W/m² | - |
| 1777984193 | 11.67° C | 94% | 1018 hPa | 0 mm | 0 m/s | 38 W/m² | - |
| 1777983890 | 11.11° C | 95% | 1017.6 hPa | 0 mm | 0 m/s | 35 W/m² | - |
| 1777983587 | 10.56° C | 95% | 1017.6 hPa | 0 mm | 0 m/s | 34 W/m² | - |
| 1777983283 | 10° C | 95% | 1017.6 hPa | 0 mm | 0 m/s | 31 W/m² | - |
| 1777982979 | 9.44° C | 95% | 1017.6 hPa | 0 mm | 0 m/s | 30 W/m² | - |
| 1777982676 | 9.44° C | 95% | 1017.3 hPa | 0 mm | 0 m/s | 29 W/m² | - |
| 1777982375 | 8.89° C | 95% | 1017.3 hPa | 0 mm | 0 m/s | 27 W/m² | - |
| 1777982072 | 8.89° C | 95% | 1017.3 hPa | 0 mm | 0 m/s | 25 W/m² | - |
| 1777981770 | 8.33° C | 95% | 1017.3 hPa | 0 mm | 0 m/s | 23 W/m² | - |
| 1777981466 | 8.33° C | 95% | 1017.3 hPa | 0 mm | 0 m/s | 23 W/m² | - |
* Rain latest hour (hover to see other rain measurements)
** Current wind speed in m/s (hover to see current wind gust speed)